| time (UTC) | temp C | wind direction | speed KPH | gust KPH | rain 1hr cm | rain 24hr cm | rain mn cm | humidity % | barometer mb |
| 20260906122318 | 22 | 146 | 6.4 | 8.0 | 0.00 | 0.00 | 0.00 | 98 | 1017.1 |
| 20260906121815 | 22 | 112 | 3.2 | 4.8 | 0.00 | 0.00 | 0.00 | 98 | 1016.9 |
| 20260906121311 | 22 | 155 | 4.8 | 4.8 | 0.00 | 0.00 | 0.00 | 98 | 1016.9 |
| 20260906120807 | 22 | 126 | 1.6 | 3.2 | 0.00 | 0.00 | 0.00 | 98 | 1016.9 |
| 20260906120303 | 22 | 128 | 4.8 | 4.8 | 0.00 | 0.00 | 0.00 | 98 | 1016.8 |
| 20260906115759 | 22 | 119 | 1.6 | 3.2 | 0.00 | 0.00 | 0.00 | 98 | 1017.0 |
| 20260906115254 | 22 | 97 | 3.2 | 3.2 | 0.00 | 0.00 | 0.00 | 98 | 1016.7 |
| 20260906114753 | 22 | 108 | 0.0 | 1.6 | 0.00 | 0.00 | 0.00 | 98 | 1016.7 |
| 20260906114249 | 22 | 115 | 3.2 | 4.8 | 0.00 | 0.00 | 0.00 | 98 | 1016.7 |
| 20260906113744 | 22 | 118 | 3.2 | 3.2 | 0.00 | 0.00 | 0.00 | 98 | 1016.6 |
| 20260906113243 | 22 | 93 | 4.8 | 4.8 | 0.00 | 0.00 | 0.00 | 97 | 1016.6 |
| 20260906112743 | 22 | 129 | 0.0 | 1.6 | 0.00 | 0.00 | 0.00 | 97 | 1016.4 |
| 20260906112239 | 22 | 137 | 3.2 | 3.2 | 0.00 | 0.00 | 0.00 | 97 | 1016.4 |
| 20260906111739 | 22 | 126 | 4.8 | 4.8 | 0.00 | 0.00 | 0.00 | 97 | 1016.2 |
| 20260906111233 | 22 | 131 | 3.2 | 3.2 | 0.00 | 0.00 | 0.00 | 97 | 1016.1 |
| 20260906110728 | 22 | 137 | 3.2 | 3.2 | 0.00 | 0.00 | 0.00 | 96 | 1016.2 |
| 20260906110225 | 22 | 97 | 1.6 | 3.2 | 0.00 | 0.00 | 0.00 | 96 | 1016.1 |
| 20260906105723 | 22 | 118 | 4.8 | 4.8 | 0.00 | 0.00 | 0.00 | 96 | 1015.9 |
| 20260906105220 | 22 | 112 | 3.2 | 4.8 | 0.00 | 0.00 | 0.00 | 96 | 1016.1 |
| 20260906104719 | 22 | 100 | 3.2 | 4.8 | 0.00 | 0.00 | 0.00 | 96 | 1015.9 |
| 20260906104219 | 22 | 101 | 9.7 | 11.3 | 0.00 | 0.00 | 0.00 | 95 | 1015.9 |
| 20260906103716 | 22 | 117 | 8.0 | 11.3 | 0.00 | 0.00 | 0.00 | 95 | 1015.8 |
| 20260906103211 | 22 | 90 | 6.4 | 9.7 | 0.00 | 0.00 | 0.00 | 95 | 1015.9 |
| 20260906102706 | 23 | 123 | 4.8 | 4.8 | 0.00 | 0.00 | 0.00 | 95 | 1015.5 |
| 20260906102205 | 23 | 122 | 8.0 | 8.0 | 0.00 | 0.00 | 0.00 | 95 | 1015.7 |
| 20260906101700 | 23 | 86 | 4.8 | 4.8 | 0.00 | 0.00 | 0.00 | 95 | 1015.4 |
| 20260906101155 | 23 | 120 | 4.8 | 4.8 | 0.00 | 0.00 | 0.00 | 95 | 1015.6 |
| 20260906100650 | 23 | 94 | 6.4 | 8.0 | 0.00 | 0.00 | 0.00 | 94 | 1015.5 |
| 20260906100145 | 23 | 111 | 8.0 | 11.3 | 0.00 | 0.00 | 0.00 | 94 | 1015.5 |
| 20260906095640 | 23 | 89 | 6.4 | 8.0 | 0.00 | 0.00 | 0.00 | 94 | 1015.2 |
| 20260906095135 | 23 | 115 | 8.0 | 9.7 | 0.00 | 0.00 | 0.00 | 94 | 1015.3 |
| 20260906094634 | 23 | 92 | 3.2 | 4.8 | 0.00 | 0.00 | 0.00 | 94 | 1015.4 |
| 20260906094130 | 23 | 115 | 4.8 | 4.8 | 0.00 | 0.00 | 0.00 | 94 | 1015.1 |
| 20260906093626 | 23 | 90 | 3.2 | 8.0 | 0.00 | 0.00 | 0.00 | 93 | 1015.2 |
| 20260906093126 | 23 | 104 | 0.0 | 1.6 | 0.00 | 0.00 | 0.00 | 93 | 1015.1 |
| 20260906092621 | 23 | 95 | 6.4 | 9.7 | 0.00 | 0.00 | 0.00 | 93 | 1015.2 |
| 20260906092116 | 23 | 97 | 6.4 | 8.0 | 0.00 | 0.00 | 0.00 | 93 | 1014.8 |
| 20260906091612 | 23 | 127 | 8.0 | 9.7 | 0.00 | 0.00 | 0.00 | 93 | 1014.8 |
| 20260906091109 | 24 | 111 | 6.4 | 8.0 | 0.00 | 0.00 | 0.00 | 92 | 1015.2 |
| 20260906090609 | 24 | 75 | 1.6 | 4.8 | 0.00 | 0.00 | 0.00 | 92 | 1015.1 |
| 20260906090109 | 24 | 94 | 3.2 | 8.0 | 0.00 | 0.00 | 0.00 | 92 | 1014.7 |
| 20260906085607 | 24 | 93 | 8.0 | 11.3 | 0.00 | 0.00 | 0.00 | 92 | 1014.8 |
| 20260906085102 | 24 | 84 | 3.2 | 8.0 | 0.00 | 0.00 | 0.00 | 91 | 1014.9 |
| 20260906084557 | 25 | 97 | 8.0 | 9.7 | 0.00 | 0.00 | 0.00 | 91 | 1014.7 |
| 20260906084056 | 25 | 115 | 8.0 | 11.3 | 0.00 | 0.00 | 0.00 | 92 | 1014.8 |
| 20260906083552 | 25 | 95 | 4.8 | 9.7 | 0.00 | 0.00 | 0.00 | 92 | 1014.9 |
| 20260906083051 | 25 | 101 | 8.0 | 9.7 | 0.00 | 0.00 | 0.00 | 92 | 1014.8 |
| 20260906082547 | 25 | 103 | 4.8 | 8.0 | 0.00 | 0.00 | 0.00 | 92 | 1014.8 |
| 20260906082042 | 25 | 89 | 8.0 | 9.7 | 0.00 | 0.00 | 0.00 | 92 | 1014.8 |
| 20260906081538 | 25 | 99 | 4.8 | 4.8 | 0.00 | 0.00 | 0.00 | 91 | 1014.7 |
| 20260906081034 | 25 | 107 | 4.8 | 4.8 | 0.00 | 0.00 | 0.00 | 91 | 1014.6 |
| 20260906080530 | 25 | 124 | 3.2 | 3.2 | 0.00 | 0.00 | 0.00 | 90 | 1014.6 |
| 20260906080026 | 25 | 120 | 3.2 | 3.2 | 0.00 | 0.00 | 0.00 | 89 | 1014.4 |
| 20260906075526 | 25 | 115 | 3.2 | 3.2 | 0.00 | 0.00 | 0.00 | 89 | 1014.6 |
| 20260906075020 | 26 | 131 | 1.6 | 1.6 | 0.00 | 0.00 | 0.00 | 89 | 1014.5 |
| 20260906074515 | 26 | 141 | 0.0 | 0.0 | 0.00 | 0.00 | 0.00 | 88 | 1014.3 |
| 20260906074013 | 26 | 130 | 1.6 | 3.2 | 0.00 | 0.00 | 0.00 | 88 | 1014.8 |
| 20260906073508 | 26 | 125 | 1.6 | 3.2 | 0.00 | 0.00 | 0.00 | 88 | 1014.8 |
| 20260906073005 | 26 | 122 | 3.2 | 3.2 | 0.00 | 0.00 | 0.00 | 87 | 1014.8 |
| 20260906072459 | 26 | 126 | 3.2 | 3.2 | 0.00 | 0.00 | 0.00 | 87 | 1014.7 |
| 20260906071955 | 26 | 139 | 0.0 | 1.6 | 0.00 | 0.00 | 0.00 | 86 | 1014.9 |
| 20260906071451 | 26 | 138 | 1.6 | 1.6 | 0.00 | 0.00 | 0.00 | 86 | 1014.9 |
| 20260906070947 | 26 | 138 | 1.6 | 1.6 | 0.00 | 0.00 | 0.00 | 85 | 1015.1 |
| 20260906070443 | 26 | 150 | 1.6 | 1.6 | 0.00 | 0.00 | 0.00 | 85 | 1014.9 |
| 20260906065938 | 26 | 141 | 0.0 | 1.6 | 0.00 | 0.00 | 0.00 | 85 | 1014.7 |
| 20260906065438 | 26 | 134 | 1.6 | 1.6 | 0.00 | 0.00 | 0.00 | 85 | 1014.9 |
| 20260906064933 | 27 | 113 | 3.2 | 3.2 | 0.00 | 0.00 | 0.00 | 85 | 1015.2 |
| 20260906064429 | 27 | 145 | 3.2 | 4.8 | 0.00 | 0.00 | 0.00 | 85 | 1015.2 |
| 20260906063924 | 27 | 128 | 3.2 | 4.8 | 0.00 | 0.00 | 0.00 | 85 | 1015.2 |
| 20260906063419 | 27 | 128 | 3.2 | 3.2 | 0.00 | 0.00 | 0.00 | 85 | 1015.2 |
| 20260906062915 | 27 | 141 | 4.8 | 4.8 | 0.00 | 0.00 | 0.00 | 86 | 1015.5 |
| 20260906062415 | 27 | 131 | 4.8 | 4.8 | 0.00 | 0.00 | 0.00 | 86 | 1015.3 |
| 20260906061910 | 27 | 143 | 4.8 | 8.0 | 0.00 | 0.00 | 0.00 | 86 | 1015.4 |
| 20260906061406 | 27 | 130 | 9.7 | 11.3 | 0.00 | 0.00 | 0.00 | 86 | 1015.5 |
| 20260906060900 | 27 | 115 | 6.4 | 9.7 | 0.00 | 0.00 | 0.00 | 86 | 1015.4 |
| 20260906060358 | 27 | 121 | 4.8 | 4.8 | 0.00 | 0.00 | 0.00 | 86 | 1015.4 |
| 20260906055854 | 27 | 116 | 8.0 | 9.7 | 0.00 | 0.00 | 0.00 | 86 | 1015.6 |
| 20260906055349 | 27 | 125 | 3.2 | 3.2 | 0.00 | 0.00 | 0.00 | 86 | 1015.6 |
| 20260906054844 | 27 | 142 | 1.6 | 1.6 | 0.00 | 0.00 | 0.00 | 85 | 1015.3 |
| 20260906054339 | 27 | 130 | 8.0 | 9.7 | 0.00 | 0.00 | 0.00 | 85 | 1015.6 |
| 20260906053835 | 27 | 132 | 4.8 | 4.8 | 0.00 | 0.00 | 0.00 | 85 | 1015.4 |
| 20260906053331 | 27 | 144 | 1.6 | 3.2 | 0.00 | 0.00 | 0.00 | 84 | 1015.1 |
| 20260906052826 | 27 | 119 | 1.6 | 3.2 | 0.00 | 0.00 | 0.00 | 84 | 1015.4 |
| 20260906052323 | 27 | 122 | 4.8 | 8.0 | 0.00 | 0.00 | 0.00 | 83 | 1015.4 |
| 20260906051820 | 27 | 105 | 6.4 | 8.0 | 0.00 | 0.00 | 0.00 | 83 | 1015.3 |
| 20260906051318 | 27 | 134 | 4.8 | 4.8 | 0.00 | 0.00 | 0.00 | 82 | 1015.2 |
| 20260906050809 | 28 | 137 | 1.6 | 3.2 | 0.00 | 0.00 | 0.00 | 82 | 1014.8 |
| 20260906050303 | 28 | 141 | 4.8 | 4.8 | 0.00 | 0.00 | 0.00 | 81 | 1015.1 |
| 20260906045802 | 28 | 142 | 0.0 | 1.6 | 0.00 | 0.00 | 0.00 | 81 | 1015.1 |
| 20260906045257 | 28 | 139 | 0.0 | 1.6 | 0.00 | 0.00 | 0.00 | 80 | 1015.1 |
| 20260906044753 | 28 | 145 | 1.6 | 1.6 | 0.00 | 0.00 | 0.00 | 79 | 1014.7 |
| 20260906044248 | 28 | 118 | 3.2 | 3.2 | 0.00 | 0.00 | 0.00 | 79 | 1014.9 |
| 20260906043744 | 28 | 144 | 3.2 | 3.2 | 0.00 | 0.00 | 0.00 | 79 | 1015.1 |
| 20260906043240 | 28 | 147 | 1.6 | 1.6 | 0.00 | 0.00 | 0.00 | 79 | 1014.7 |
| 20260906042739 | 28 | 154 | 1.6 | 1.6 | 0.00 | 0.00 | 0.00 | 79 | 1014.9 |
| 20260906042238 | 28 | 151 | 0.0 | 0.0 | 0.00 | 0.00 | 0.00 | 79 | 1014.7 |
| 20260906041734 | 28 | 153 | 0.0 | 0.0 | 0.00 | 0.00 | 0.00 | 79 | 1014.7 |
| 20260906041229 | 27 | 140 | 0.0 | 0.0 | 0.00 | 0.00 | 0.00 | 80 | 1014.6 |
| 20260906040725 | 27 | 130 | 1.6 | 1.6 | 0.00 | 0.00 | 0.00 | 81 | 1014.5 |
| 20260906040220 | 27 | 137 | 1.6 | 1.6 | 0.00 | 0.00 | 0.00 | 82 | 1014.6 |
| 20260906035715 | 27 | 147 | 0.0 | 0.0 | 0.00 | 0.00 | 0.00 | 83 | 1014.5 |
| 20260906035211 | 26 | 150 | 0.0 | 0.0 | 0.00 | 0.00 | 0.00 | 84 | 1014.5 |
| 20260906034710 | 26 | 144 | 0.0 | 0.0 | 0.00 | 0.00 | 0.00 | 85 | 1014.4 |
| 20260906034205 | 26 | 150 | 0.0 | 0.0 | 0.00 | 0.00 | 0.00 | 85 | 1014.4 |
| 20260906033701 | 26 | 155 | 0.0 | 0.0 | 0.00 | 0.00 | 0.00 | 85 | 1014.6 |
| 20260906033200 | 26 | 155 | 0.0 | 0.0 | 0.00 | 0.00 | 0.00 | 85 | 1014.3 |
| 20260906032657 | 27 | 156 | 0.0 | 0.0 | 0.00 | 0.00 | 0.00 | 84 | 1014.2 |
| 20260906032152 | 27 | 159 | 0.0 | 0.0 | 0.00 | 0.00 | 0.00 | 83 | 1014.2 |
| 20260906031648 | 27 | 163 | 0.0 | 0.0 | 0.00 | 0.00 | 0.00 | 83 | 1014.5 |
| 20260906031143 | 27 | 159 | 0.0 | 0.0 | 0.00 | 0.00 | 0.00 | 82 | 1014.1 |
| 20260906030642 | 27 | 153 | 0.0 | 0.0 | 0.00 | 0.00 | 0.00 | 82 | 1014.3 |
| 20260906030138 | 27 | 150 | 0.0 | 0.0 | 0.00 | 0.00 | 0.00 | 82 | 1014.6 |
| 20260906025636 | 27 | 147 | 0.0 | 0.0 | 0.00 | 0.00 | 0.00 | 82 | 1014.1 |
| 20260906025136 | 27 | 153 | 0.0 | 0.0 | 0.00 | 0.00 | 0.00 | 83 | 1014.4 |
| 20260906024631 | 27 | 150 | 0.0 | 0.0 | 0.00 | 0.00 | 0.00 | 83 | 1014.3 |
| 20260906024125 | 27 | 150 | 0.0 | 0.0 | 0.00 | 0.00 | 0.00 | 83 | 1014.1 |
| 20260906023621 | 27 | 153 | 0.0 | 0.0 | 0.00 | 0.00 | 0.00 | 83 | 1014.0 |
| 20260906023121 | 27 | 153 | 0.0 | 0.0 | 0.00 | 0.00 | 0.00 | 81 | 1014.1 |
| 20260906022616 | 27 | 155 | 0.0 | 0.0 | 0.00 | 0.00 | 0.00 | 81 | 1014.0 |
| 20260906022112 | 27 | 155 | 0.0 | 0.0 | 0.00 | 0.00 | 0.00 | 80 | 1013.8 |
| 20260906021608 | 27 | 155 | 0.0 | 0.0 | 0.00 | 0.00 | 0.00 | 80 | 1013.8 |
| 20260906021106 | 27 | 164 | 0.0 | 0.0 | 0.00 | 0.00 | 0.00 | 79 | 1013.8 |
| 20260906020605 | 28 | 171 | 1.6 | 1.6 | 0.00 | 0.00 | 0.00 | 79 | 1013.7 |
| 20260906020100 | 28 | 160 | 0.0 | 0.0 | 0.00 | 0.00 | 0.00 | 77 | 1013.8 |
| 20260906015600 | 28 | 159 | 0.0 | 0.0 | 0.00 | 0.00 | 0.00 | 77 | 1013.6 |
| 20260906015100 | 28 | 158 | 0.0 | 0.0 | 0.00 | 0.00 | 0.00 | 76 | 1013.5 |
| 20260906014554 | 28 | 153 | 0.0 | 0.0 | 0.00 | 0.00 | 0.00 | 75 | 1013.5 |
| 20260906014050 | 29 | 153 | 0.0 | 0.0 | 0.00 | 0.00 | 0.00 | 73 | 1013.2 |
| 20260906013545 | 29 | 153 | 0.0 | 0.0 | 0.00 | 0.00 | 0.00 | 73 | 1013.5 |
| 20260906013041 | 29 | 153 | 0.0 | 0.0 | 0.00 | 0.00 | 0.00 | 72 | 1013.4 |
| 20260906012536 | 29 | 153 | 0.0 | 0.0 | 0.00 | 0.00 | 0.00 | 72 | 1013.2 |
| 20260906012035 | 29 | 153 | 0.0 | 0.0 | 0.00 | 0.00 | 0.00 | 72 | 1013.1 |
| 20260906011532 | 29 | 150 | 0.0 | 0.0 | 0.00 | 0.00 | 0.00 | 71 | 1013.4 |
| 20260906011031 | 30 | 150 | 0.0 | 0.0 | 0.00 | 0.00 | 0.00 | 71 | 1013.1 |
| 20260906010526 | 30 | 150 | 0.0 | 1.6 | 0.00 | 0.00 | 0.00 | 70 | 1013.0 |
| 20260906010023 | 31 | 155 | 0.0 | 0.0 | 0.00 | 0.00 | 0.00 | 65 | 1013.1 |
| 20260906005522 | 31 | 162 | 0.0 | 0.0 | 0.00 | 0.00 | 0.00 | 66 | 1013.0 |
| 20260906005021 | 31 | 153 | 0.0 | 0.0 | 0.00 | 0.00 | 0.00 | 65 | 1012.9 |
| 20260906004521 | 30 | 149 | 0.0 | 0.0 | 0.00 | 0.00 | 0.00 | 67 | 1012.8 |
| 20260906004016 | 31 | 158 | 0.0 | 0.0 | 0.00 | 0.00 | 0.00 | 65 | 1013.0 |
| 20260906003511 | 31 | 150 | 1.6 | 1.6 | 0.00 | 0.00 | 0.00 | 66 | 1012.9 |
| 20260906003007 | 32 | 154 | 0.0 | 0.0 | 0.00 | 0.00 | 0.00 | 62 | 1013.0 |
| 20260906002501 | 32 | 156 | 0.0 | 0.0 | 0.00 | 0.00 | 0.00 | 62 | 1012.7 |
| 20260906001956 | 32 | 150 | 0.0 | 0.0 | 0.00 | 0.00 | 0.00 | 60 | 1012.8 |
| 20260906001452 | 32 | 129 | 1.6 | 3.2 | 0.00 | 0.00 | 0.00 | 59 | 1012.9 |
| 20260906000946 | 33 | 142 | 1.6 | 1.6 | 0.00 | 0.00 | 0.00 | 60 | 1012.8 |
| 20260906000442 | 33 | 132 | 1.6 | 3.2 | 0.00 | 0.00 | 0.00 | 57 | 1013.1 |
| 20260905235942 | 33 | 141 | 1.6 | 3.2 | 0.00 | 0.00 | 0.00 | 57 | 1012.8 |
| 20260905235436 | 33 | 147 | 3.2 | 3.2 | 0.00 | 0.00 | 0.00 | 56 | 1013.3 |
| 20260905234931 | 34 | 115 | 4.8 | 4.8 | 0.00 | 0.00 | 0.00 | 54 | 1013.1 |
| 20260905234426 | 34 | 110 | 4.8 | 4.8 | 0.00 | 0.00 | 0.00 | 53 | 1013.0 |
| 20260905233921 | 34 | 124 | 3.2 | 3.2 | 0.00 | 0.00 | 0.00 | 53 | 1013.1 |
| 20260905233417 | 34 | 118 | 3.2 | 3.2 | 0.00 | 0.00 | 0.00 | 53 | 1012.9 |
| 20260905232915 | 34 | 75 | 6.4 | 8.0 | 0.00 | 0.00 | 0.00 | 53 | 1013.2 |
| 20260905232412 | 35 | 101 | 3.2 | 4.8 | 0.00 | 0.00 | 0.00 | 52 | 1013.0 |
| 20260905231906 | 35 | 78 | 6.4 | 8.0 | 0.00 | 0.00 | 0.00 | 50 | 1013.1 |
| 20260905231402 | 35 | 53 | 9.7 | 14.5 | 0.00 | 0.00 | 0.00 | 50 | 1012.8 |
| 20260905230859 | 35 | 62 | 9.7 | 11.3 | 0.00 | 0.00 | 0.00 | 50 | 1012.9 |
| 20260905230356 | 35 | 102 | 4.8 | 4.8 | 0.00 | 0.00 | 0.00 | 49 | 1012.9 |
| 20260905225850 | 35 | 61 | 4.8 | 9.7 | 0.00 | 0.00 | 0.00 | 49 | 1012.6 |
| 20260905225345 | 36 | 50 | 14.5 | 20.9 | 0.00 | 0.00 | 0.00 | 48 | 1013.0 |
| 20260905224840 | 36 | 82 | 3.2 | 4.8 | 0.00 | 0.00 | 0.00 | 45 | 1012.7 |
| 20260905224336 | 36 | 89 | 4.8 | 4.8 | 0.00 | 0.00 | 0.00 | 44 | 1012.8 |
| 20260905223836 | 36 | 148 | 0.0 | 1.6 | 0.00 | 0.00 | 0.00 | 45 | 1012.8 |
| 20260905223334 | 36 | 79 | 3.2 | 3.2 | 0.00 | 0.00 | 0.00 | 45 | 1012.8 |
| 20260905222828 | 36 | 103 | 3.2 | 3.2 | 0.00 | 0.00 | 0.00 | 45 | 1013.0 |
| 20260905222327 | 36 | 71 | 8.0 | 9.7 | 0.00 | 0.00 | 0.00 | 45 | 1012.6 |
| 20260905221823 | 37 | 105 | 3.2 | 3.2 | 0.00 | 0.00 | 0.00 | 45 | 1012.5 |
| 20260905221320 | 37 | 144 | 0.0 | 1.6 | 0.00 | 0.00 | 0.00 | 49 | 1012.5 |
| 20260905220816 | 36 | 95 | 3.2 | 3.2 | 0.00 | 0.00 | 0.00 | 46 | 1012.6 |
| 20260905220312 | 36 | 115 | 4.8 | 4.8 | 0.00 | 0.00 | 0.00 | 47 | 1012.6 |
| 20260905215811 | 36 | 109 | 3.2 | 4.8 | 0.00 | 0.00 | 0.00 | 48 | 1012.7 |
| 20260905215307 | 36 | 71 | 4.8 | 9.7 | 0.00 | 0.00 | 0.00 | 46 | 1012.7 |
| 20260905214802 | 37 | 56 | 6.4 | 14.5 | 0.00 | 0.00 | 0.00 | 46 | 1012.7 |
| 20260905214258 | 36 | 139 | 3.2 | 3.2 | 0.00 | 0.00 | 0.00 | 46 | 1012.5 |
| 20260905213753 | 36 | 82 | 6.4 | 8.0 | 0.00 | 0.00 | 0.00 | 47 | 1012.7 |
| 20260905213250 | 36 | 51 | 4.8 | 4.8 | 0.00 | 0.00 | 0.00 | 47 | 1012.6 |
| 20260905212744 | 36 | 62 | 8.0 | 9.7 | 0.00 | 0.00 | 0.00 | 46 | 1012.6 |
| 20260905212243 | 36 | 78 | 4.8 | 8.0 | 0.00 | 0.00 | 0.00 | 46 | 1012.7 |
| 20260905211743 | 37 | 134 | 1.6 | 1.6 | 0.00 | 0.00 | 0.00 | 46 | 1012.9 |
| 20260905211238 | 37 | 140 | 1.6 | 1.6 | 0.00 | 0.00 | 0.00 | 46 | 1012.8 |
| 20260905210735 | 37 | 107 | 3.2 | 3.2 | 0.00 | 0.00 | 0.00 | 42 | 1013.0 |
| 20260905210235 | 37 | 87 | 4.8 | 4.8 | 0.00 | 0.00 | 0.00 | 45 | 1012.8 |
| 20260905205733 | 37 | 56 | 11.3 | 14.5 | 0.00 | 0.00 | 0.00 | 41 | 1013.1 |
| 20260905205228 | 37 | 98 | 4.8 | 9.7 | 0.00 | 0.00 | 0.00 | 40 | 1012.8 |
| 20260905204723 | 37 | 71 | 8.0 | 9.7 | 0.00 | 0.00 | 0.00 | 42 | 1013.0 |
| 20260905204218 | 37 | 63 | 3.2 | 3.2 | 0.00 | 0.00 | 0.00 | 42 | 1012.9 |
| 20260905203718 | 37 | 132 | 1.6 | 1.6 | 0.00 | 0.00 | 0.00 | 42 | 1013.3 |
| 20260905203213 | 37 | 137 | 3.2 | 4.8 | 0.00 | 0.00 | 0.00 | 43 | 1013.0 |
| 20260905202708 | 37 | 70 | 8.0 | 9.7 | 0.00 | 0.00 | 0.00 | 42 | 1013.4 |
| 20260905202203 | 37 | 139 | 1.6 | 3.2 | 0.00 | 0.00 | 0.00 | 44 | 1013.4 |
| 20260905201659 | 37 | 55 | 8.0 | 14.5 | 0.00 | 0.00 | 0.00 | 44 | 1013.4 |
| 20260905201159 | 37 | 79 | 6.4 | 9.7 | 0.00 | 0.00 | 0.00 | 43 | 1013.2 |
| 20260905200654 | 37 | 113 | 4.8 | 8.0 | 0.00 | 0.00 | 0.00 | 42 | 1013.4 |
| 20260905200150 | 37 | 59 | 9.7 | 11.3 | 0.00 | 0.00 | 0.00 | 44 | 1013.4 |
| 20260905195648 | 37 | 66 | 14.5 | 17.7 | 0.00 | 0.00 | 0.00 | 43 | 1013.6 |
| 20260905195143 | 37 | 73 | 8.0 | 11.3 | 0.00 | 0.00 | 0.00 | 44 | 1013.3 |
| 20260905194638 | 37 | 88 | 4.8 | 8.0 | 0.00 | 0.00 | 0.00 | 44 | 1013.5 |
| 20260905194138 | 36 | 74 | 8.0 | 9.7 | 0.00 | 0.00 | 0.00 | 45 | 1013.8 |
| 20260905193632 | 36 | 75 | 4.8 | 11.3 | 0.00 | 0.00 | 0.00 | 46 | 1013.8 |
| 20260905193127 | 37 | 57 | 12.9 | 14.5 | 0.00 | 0.00 | 0.00 | 45 | 1013.9 |
| 20260905192623 | 37 | 158 | 0.0 | 0.0 | 0.00 | 0.00 | 0.00 | 46 | 1013.7 |
| 20260905192119 | 37 | 111 | 1.6 | 3.2 | 0.00 | 0.00 | 0.00 | 45 | 1014.1 |
| 20260905191618 | 37 | 85 | 4.8 | 4.8 | 0.00 | 0.00 | 0.00 | 47 | 1013.9 |
| 20260905191117 | 37 | 152 | 3.2 | 3.2 | 0.00 | 0.00 | 0.00 | 47 | 1014.0 |
| 20260905190615 | 37 | 86 | 3.2 | 3.2 | 0.00 | 0.00 | 0.00 | 47 | 1014.3 |
| 20260905190115 | 36 | 142 | 1.6 | 1.6 | 0.00 | 0.00 | 0.00 | 49 | 1014.2 |
| 20260905185613 | 36 | 62 | 6.4 | 8.0 | 0.00 | 0.00 | 0.00 | 49 | 1014.2 |
| 20260905185108 | 37 | 74 | 3.2 | 8.0 | 0.00 | 0.00 | 0.00 | 49 | 1014.3 |
| 20260905184603 | 37 | 132 | 1.6 | 3.2 | 0.00 | 0.00 | 0.00 | 48 | 1014.1 |
| 20260905184102 | 37 | 147 | 1.6 | 3.2 | 0.00 | 0.00 | 0.00 | 48 | 1014.2 |
| 20260905183601 | 37 | 135 | 0.0 | 1.6 | 0.00 | 0.00 | 0.00 | 48 | 1014.7 |
| 20260905183057 | 37 | 151 | 1.6 | 1.6 | 0.00 | 0.00 | 0.00 | 47 | 1014.4 |
| 20260905182551 | 36 | 130 | 1.6 | 3.2 | 0.00 | 0.00 | 0.00 | 49 | 1014.5 |
| 20260905182050 | 36 | 129 | 1.6 | 1.6 | 0.00 | 0.00 | 0.00 | 50 | 1014.6 |
| 20260905181545 | 36 | 149 | 1.6 | 1.6 | 0.00 | 0.00 | 0.00 | 49 | 1014.6 |
| 20260905181045 | 36 | 147 | 0.0 | 0.0 | 0.00 | 0.00 | 0.00 | 49 | 1014.6 |
| 20260905180545 | 36 | 146 | 0.0 | 1.6 | 0.00 | 0.00 | 0.00 | 49 | 1014.8 |
| 20260905180041 | 36 | 303 | 4.8 | 4.8 | 0.00 | 0.00 | 0.00 | 49 | 1014.9 |
| 20260905175539 | 36 | 153 | 0.0 | 1.6 | 0.00 | 0.00 | 0.00 | 49 | 1014.8 |
| 20260905175036 | 37 | 142 | 3.2 | 3.2 | 0.00 | 0.00 | 0.00 | 48 | 1014.8 |
| 20260905174531 | 36 | 139 | 1.6 | 1.6 | 0.00 | 0.00 | 0.00 | 50 | 1014.8 |
| 20260905174026 | 37 | 96 | 4.8 | 4.8 | 0.00 | 0.00 | 0.00 | 49 | 1014.9 |
| 20260905173523 | 37 | 161 | 0.0 | 0.0 | 0.00 | 0.00 | 0.00 | 47 | 1014.8 |
| 20260905173018 | 37 | 153 | 0.0 | 1.6 | 0.00 | 0.00 | 0.00 | 49 | 1014.9 |
| 20260905172516 | 37 | 163 | 0.0 | 0.0 | 0.00 | 0.00 | 0.00 | 49 | 1014.9 |
| 20260905172012 | 37 | 153 | 3.2 | 4.8 | 0.00 | 0.00 | 0.00 | 50 | 1015.3 |
| 20260905171508 | 36 | 155 | 4.8 | 4.8 | 0.00 | 0.00 | 0.00 | 50 | 1015.2 |
| 20260905171004 | 36 | 139 | 1.6 | 3.2 | 0.00 | 0.00 | 0.00 | 52 | 1015.2 |
| 20260905170500 | 35 | 142 | 1.6 | 1.6 | 0.00 | 0.00 | 0.00 | 52 | 1015.3 |
| 20260905165959 | 36 | 57 | 6.4 | 8.0 | 0.00 | 0.00 | 0.00 | 51 | 1015.3 |
| 20260905165455 | 36 | 86 | 3.2 | 3.2 | 0.00 | 0.00 | 0.00 | 51 | 1015.4 |
| 20260905164950 | 35 | 145 | 1.6 | 1.6 | 0.00 | 0.00 | 0.00 | 52 | 1015.2 |
| 20260905164444 | 36 | 84 | 1.6 | 1.6 | 0.00 | 0.00 | 0.00 | 53 | 1015.6 |
| 20260905163939 | 35 | 155 | 0.0 | 1.6 | 0.00 | 0.00 | 0.00 | 53 | 1015.7 |
| 20260905163436 | 35 | 151 | 4.8 | 4.8 | 0.00 | 0.00 | 0.00 | 54 | 1015.8 |
| 20260905162931 | 35 | 84 | 3.2 | 3.2 | 0.00 | 0.00 | 0.00 | 55 | 1015.8 |
| 20260905162426 | 35 | 128 | 3.2 | 4.8 | 0.00 | 0.00 | 0.00 | 55 | 1016.0 |
| 20260905161921 | 35 | 155 | 1.6 | 1.6 | 0.00 | 0.00 | 0.00 | 56 | 1016.0 |
| 20260905161420 | 35 | 96 | 3.2 | 3.2 | 0.00 | 0.00 | 0.00 | 57 | 1016.1 |
| 20260905160918 | 35 | 162 | 1.6 | 1.6 | 0.00 | 0.00 | 0.00 | 57 | 1016.1 |
| 20260905160412 | 35 | 144 | 1.6 | 1.6 | 0.00 | 0.00 | 0.00 | 57 | 1015.9 |
| 20260905155906 | 34 | 154 | 0.0 | 1.6 | 0.00 | 0.00 | 0.00 | 59 | 1015.9 |
| 20260905155401 | 33 | 63 | 4.8 | 9.7 | 0.00 | 0.00 | 0.00 | 57 | 1016.0 |
| 20260905154900 | 34 | 114 | 3.2 | 4.8 | 0.00 | 0.00 | 0.00 | 56 | 1015.9 |
| 20260905154355 | 34 | 127 | 3.2 | 3.2 | 0.00 | 0.00 | 0.00 | 58 | 1016.1 |
| 20260905153851 | 34 | 125 | 3.2 | 3.2 | 0.00 | 0.00 | 0.00 | 58 | 1016.0 |
| 20260905153347 | 34 | 148 | 3.2 | 3.2 | 0.00 | 0.00 | 0.00 | 59 | 1016.2 |
| 20260905152847 | 34 | 150 | 3.2 | 3.2 | 0.00 | 0.00 | 0.00 | 59 | 1016.2 |
| 20260905152345 | 33 | 127 | 3.2 | 3.2 | 0.00 | 0.00 | 0.00 | 61 | 1015.9 |
| 20260905151841 | 33 | 154 | 1.6 | 3.2 | 0.00 | 0.00 | 0.00 | 61 | 1016.1 |
| 20260905151337 | 33 | 135 | 3.2 | 3.2 | 0.00 | 0.00 | 0.00 | 62 | 1016.0 |
| 20260905150837 | 33 | 158 | 1.6 | 3.2 | 0.00 | 0.00 | 0.00 | 62 | 1016.1 |
| 20260905150332 | 32 | 126 | 1.6 | 3.2 | 0.00 | 0.00 | 0.00 | 63 | 1016.1 |
| 20260905145829 | 32 | 134 | 1.6 | 3.2 | 0.00 | 0.00 | 0.00 | 66 | 1016.1 |
| 20260905145328 | 32 | 152 | 1.6 | 3.2 | 0.00 | 0.00 | 0.00 | 63 | 1016.1 |
| 20260905144827 | 32 | 357 | 8.0 | 8.0 | 0.00 | 0.00 | 0.00 | 64 | 1016.2 |
| 20260905144323 | 31 | 237 | 3.2 | 4.8 | 0.00 | 0.00 | 0.00 | 67 | 1016.0 |
| 20260905143821 | 31 | 182 | 1.6 | 1.6 | 0.00 | 0.00 | 0.00 | 71 | 1016.1 |
| 20260905143316 | 31 | 280 | 8.0 | 8.0 | 0.00 | 0.00 | 0.00 | 71 | 1016.1 |
| 20260905142815 | 31 | 272 | 8.0 | 11.3 | 0.00 | 0.00 | 0.00 | 70 | 1015.9 |
| 20260905142309 | 31 | 173 | 3.2 | 4.8 | 0.00 | 0.00 | 0.00 | 70 | 1016.4 |
| 20260905141806 | 31 | 170 | 1.6 | 1.6 | 0.00 | 0.00 | 0.00 | 71 | 1015.9 |
| 20260905141301 | 30 | 161 | 1.6 | 1.6 | 0.00 | 0.00 | 0.00 | 72 | 1016.0 |
| 20260905140757 | 30 | 173 | 1.6 | 1.6 | 0.00 | 0.00 | 0.00 | 73 | 1016.0 |
| 20260905140256 | 30 | 166 | 0.0 | 1.6 | 0.00 | 0.00 | 0.00 | 75 | 1015.9 |
| 20260905135755 | 29 | 290 | 6.4 | 8.0 | 0.00 | 0.00 | 0.00 | 77 | 1016.1 |
| 20260905135252 | 28 | 213 | 3.2 | 3.2 | 0.00 | 0.00 | 0.00 | 79 | 1016.2 |
| 20260905134752 | 28 | 265 | 4.8 | 8.0 | 0.00 | 0.00 | 0.00 | 79 | 1016.2 |
| 20260905134251 | 28 | 276 | 4.8 | 4.8 | 0.00 | 0.00 | 0.00 | 80 | 1016.4 |
| 20260905133745 | 28 | 260 | 4.8 | 4.8 | 0.00 | 0.00 | 0.00 | 81 | 1016.4 |
| 20260905133241 | 28 | 226 | 4.8 | 4.8 | 0.00 | 0.00 | 0.00 | 81 | 1016.4 |
| 20260905132739 | 27 | 177 | 1.6 | 1.6 | 0.00 | 0.00 | 0.00 | 82 | 1016.1 |
| 20260905132236 | 27 | 196 | 3.2 | 3.2 | 0.00 | 0.00 | 0.00 | 82 | 1016.4 |
| 20260905131730 | 27 | 232 | 4.8 | 4.8 | 0.00 | 0.00 | 0.00 | 83 | 1016.3 |
| 20260905131226 | 27 | 270 | 8.0 | 8.0 | 0.00 | 0.00 | 0.00 | 83 | 1016.1 |
| 20260905130726 | 27 | 230 | 4.8 | 4.8 | 0.00 | 0.00 | 0.00 | 83 | 1016.4 |
| 20260905130225 | 27 | 175 | 0.0 | 1.6 | 0.00 | 0.00 | 0.00 | 85 | 1016.1 |
| 20260905125720 | 26 | 176 | 0.0 | 0.0 | 0.00 | 0.00 | 0.00 | 87 | 1016.2 |
| 20260905125216 | 26 | 192 | 4.8 | 4.8 | 0.00 | 0.00 | 0.00 | 88 | 1016.1 |
| 20260905124712 | 26 | 168 | 0.0 | 1.6 | 0.00 | 0.00 | 0.00 | 87 | 1016.1 |
| 20260905124208 | 26 | 168 | 0.0 | 0.0 | 0.00 | 0.00 | 0.00 | 89 | 1016.2 |
| 20260905123702 | 25 | 168 | 0.0 | 0.0 | 0.00 | 0.00 | 0.00 | 91 | 1016.1 |
| 20260905123200 | 25 | 169 | 0.0 | 0.0 | 0.00 | 0.00 | 0.00 | 91 | 1016.0 |
| 20260905122659 | 25 | 171 | 0.0 | 0.0 | 0.00 | 0.00 | 0.00 | 91 | 1016.1 |